Eagle, CO

7:19 PM MDT on April 25, 2017 (GMT -0600)
Eagle County Regional

Weather History for KEGE - May, 2013

Change the Weather History Date:

Thursday, May 23, 2013

  Actual Average Record
Temperature  
Mean Temperature 60 °F -  
Max Temperature 80 °F 71 °F 86 °F (1984)
Min Temperature 41 °F 34 °F 25 °F (1972)
Degree Days  
Heating Degree Days 4    
Growing Degree Days 10 (Base 50)    
Moisture  
Dew Point 25 °F    
Average Humidity 34    
Maximum Humidity 70    
Minimum Humidity 9    
Precipitation  
Precipitation 0.00 in - - ()
Sea Level Pressure  
Sea Level Pressure 29.92 in    
Wind  
Wind Speed 5 mph (SSW)    
Max Wind Speed 26 mph    
Max Gust Speed 37 mph    
Visibility 10 miles    
Events      
Averages and records for this station are not official NWS values.
T = Trace of Precipitation, MM = Missing Value Source: NWS Daily Summary

Daily Weather History Graph

Daily Weather History Graph

Search for Another Location

Airport or City:

Trip Planner

Search our weather history database for the weather conditions in past years. The results will help you decide how hot, cold, wet, or windy it might be!

Date:

Astronomy

May. 23, 2013 Rise Set
Actual Time 5:46 AM MDT 8:22 PM MDT
Civil Twilight 5:15 AM MDT 8:53 PM MDT
Nautical Twilight 4:36 AM MDT 9:32 PM MDT
Astronomical Twilight 3:53 AM MDT 10:16 PM MDT
Moon 6:58 PM MDT (5/23) 4:33 AM MDT (5/23)
Length of Visible Light 15h 38m
Length of Day
14h 35m
Waxing Gibbous, 97% of the Moon is Illuminated
May 23
Waxing Gibbous
May 24
Full
May 31
Last Quarter
Jun 8
New
Jun 16
First Quarter

Hourly Weather History & Observations

Time (MDT) Temp. Windchill Dew Point Humidity Pressure Visibility Wind Dir Wind Speed Gust Speed Precip Events Conditions
12:15 AM 53.6 °F - 28.4 °F 38% 29.91 in 10.0 mi West 6.9 mph - N/A   Clear
12:35 AM 53.6 °F - 26.6 °F 35% 29.91 in 10.0 mi West 3.5 mph - N/A   Clear
12:55 AM 51.8 °F - 28.4 °F 41% 29.92 in 10.0 mi Calm Calm - N/A   Clear
1:15 AM 51.8 °F - 28.4 °F 41% 29.92 in 10.0 mi Calm Calm - N/A   Clear
1:35 AM 51.8 °F - 28.4 °F 41% 29.92 in 10.0 mi Calm Calm - N/A   Clear
1:55 AM 50.0 °F - 28.4 °F 43% 29.92 in 10.0 mi Calm Calm - N/A   Clear
2:15 AM 50.0 °F - 30.2 °F 47% 29.93 in 10.0 mi South 6.9 mph - N/A   Clear
2:35 AM 48.2 °F - 28.4 °F 46% 29.93 in 10.0 mi Calm Calm - N/A   Clear
2:55 AM 48.2 °F - 28.4 °F 46% 29.93 in 10.0 mi Calm Calm - N/A   Clear
3:15 AM 46.4 °F - 30.2 °F 53% 29.94 in 10.0 mi Calm Calm - N/A   Clear
3:35 AM 46.4 °F - 30.2 °F 53% 29.95 in 10.0 mi Calm Calm - N/A   Clear
3:55 AM 46.4 °F - 30.2 °F 53% 29.95 in 10.0 mi Calm Calm - N/A   Clear
4:15 AM 44.6 °F - 30.2 °F 57% 29.96 in 10.0 mi Calm Calm - N/A   Clear
4:35 AM 44.6 °F - 30.2 °F 57% 29.96 in 10.0 mi Calm Calm - N/A   Clear
4:55 AM 42.8 °F - 30.2 °F 61% 29.96 in 10.0 mi Calm Calm - N/A   Clear
5:15 AM 42.8 °F - 30.2 °F 61% 29.97 in 10.0 mi Calm Calm - N/A   Clear
5:35 AM 42.8 °F 41.1 °F 30.2 °F 61% 29.97 in 10.0 mi NE 3.5 mph - N/A   Clear
5:55 AM 41.0 °F - 30.2 °F 65% 29.98 in 10.0 mi Calm Calm - N/A   Clear
6:15 AM 42.8 °F - 32.0 °F 66% 29.99 in 10.0 mi Calm Calm - N/A   Clear
6:35 AM 41.0 °F - 32.0 °F 70% 29.99 in 10.0 mi Calm Calm - N/A   Clear
6:50 AM 42.8 °F - 32.0 °F 66% 30.00 in 10.0 mi Calm Calm - N/A   Partly Cloudy
7:50 AM 46.4 °F - 32.0 °F 57% 30.00 in 10.0 mi Calm Calm - N/A   Partly Cloudy
8:50 AM 53.6 °F - 33.8 °F 47% 30.00 in 10.0 mi West 9.2 mph - N/A   Clear
10:50 AM 69.8 °F - 28.4 °F 21% 29.96 in 10.0 mi Variable 5.8 mph - N/A   Partly Cloudy
11:50 AM 75.2 °F - 21.2 °F 13% 29.90 in 10.0 mi WSW 17.3 mph 23.0 mph N/A   Partly Cloudy
12:50 PM 75.2 °F - 19.4 °F 12% 29.91 in 10.0 mi SW 15.0 mph 29.9 mph N/A   Partly Cloudy
1:50 PM 78.8 °F - 19.4 °F 11% 29.88 in 10.0 mi South 26.5 mph 32.2 mph N/A   Partly Cloudy
2:50 PM 78.8 °F - 19.4 °F 11% 29.88 in 10.0 mi South 11.5 mph 20.7 mph N/A   Partly Cloudy
3:50 PM 80.6 °F - 17.6 °F 10% 29.85 in 10.0 mi SSW 25.3 mph 36.8 mph N/A   Scattered Clouds
4:50 PM 80.6 °F - 17.6 °F 10% 29.85 in 10.0 mi SW 18.4 mph 36.8 mph N/A   Scattered Clouds
5:50 PM 80.6 °F - 15.8 °F 9% 29.84 in 10.0 mi SW 23.0 mph 33.4 mph N/A   Scattered Clouds
6:50 PM 78.8 °F - 15.8 °F 9% 29.84 in 10.0 mi SSW 20.7 mph 29.9 mph N/A   Scattered Clouds
7:15 PM 78.8 °F - 15.8 °F 9% 29.85 in 10.0 mi SW 19.6 mph 31.1 mph N/A   Clear
7:35 PM 77.0 °F - 15.8 °F 10% 29.85 in 10.0 mi SW 13.8 mph 20.7 mph N/A   Clear
7:55 PM 75.2 °F - 15.8 °F 11% 29.85 in 10.0 mi WSW 13.8 mph 17.3 mph N/A   Clear
8:15 PM 73.4 °F - 15.8 °F 11% 29.86 in 10.0 mi SW 10.4 mph - N/A   Clear
8:35 PM 71.6 °F - 17.6 °F 13% 29.86 in 10.0 mi WSW 9.2 mph - N/A   Clear
8:55 PM 69.8 °F - 17.6 °F 14% 29.87 in 10.0 mi WSW 3.5 mph - N/A   Clear
9:15 PM 66.2 °F - 17.6 °F 15% 29.88 in 10.0 mi West 5.8 mph - N/A   Clear
9:35 PM 66.2 °F - 17.6 °F 15% 29.89 in 10.0 mi ENE 3.5 mph - N/A   Clear
9:55 PM 62.6 °F - 21.2 °F 20% 29.91 in 10.0 mi East 8.1 mph - N/A   Clear
10:15 PM 60.8 °F - 24.8 °F 25% 29.91 in 10.0 mi East 8.1 mph - N/A   Clear
10:35 PM 57.2 °F - 24.8 °F 29% 29.92 in 10.0 mi East 10.4 mph - N/A   Clear
11:15 PM 55.4 °F - 26.6 °F 33% 29.92 in 10.0 mi East 8.1 mph - N/A   Clear
11:35 PM 55.4 °F - 26.6 °F 33% 29.93 in 10.0 mi East 9.2 mph - N/A   Clear
11:55 PM 53.6 °F - 26.6 °F 35% 29.93 in 10.0 mi ENE 11.5 mph - N/A   Clear